EW0520 Weather Reports


time (UTC)temp
C
wind
direction
speed
KPH
gust
KPH
rain 1hr
cm
rain 24hr
cm
rain mn
cm
humidity
%
barometer
mb
20260504010004 11 212 6.4 17.7 0.00 0.00 0.00 50 1011.2
20260504005005 11 211 6.4 11.3 0.00 0.00 0.00 48 1011.2
20260504004504 12 212 8.0 24.1 0.00 0.00 0.00 48 1011.1
20260504004005 12 215 8.0 24.1 0.00 0.00 0.00 48 1011.1
20260504003504 12 217 8.0 16.1 0.00 0.00 0.00 46 1011.2
20260504003004 12 219 8.0 16.1 0.00 0.00 0.00 46 1011.1
20260504002504 12 216 8.0 17.7 0.00 0.00 0.00 46 1011.2
20260504001504 12 218 6.4 14.5 0.00 0.00 0.00 46 1011.2
20260504001004 12 221 8.0 22.5 0.00 0.00 0.00 46 1011.2
20260504000504 13 226 9.7 22.5 0.00 0.00 0.00 45 1011.3
20260504000005 13 231 11.3 24.1 0.00 0.00 0.00 45 1011.1
20260503235504 13 232 11.3 24.1 0.00 0.00 0.00 44 1011.1
20260503235005 13 228 12.9 29.0 0.00 0.00 0.00 46 1011.1
20260503234504 13 229 14.5 35.4 0.00 0.00 0.00 43 1011.2
20260503233504 13 236 12.9 30.6 0.00 0.00 0.00 44 1011.2
20260503233005 13 232 11.3 22.5 0.00 0.00 0.00 45 1011.3
20260503232505 13 231 11.3 27.4 0.00 0.00 0.00 46 1011.4
20260503232004 13 233 9.7 27.4 0.00 0.00 0.00 44 1011.3
20260503231504 13 231 9.7 22.5 0.00 0.00 0.00 45 1011.3
20260503231004 13 231 9.7 22.5 0.00 0.00 0.00 45 1011.3
20260503230504 13 229 8.0 20.9 0.00 0.00 0.00 44 1011.3
20260503230005 13 226 9.7 22.5 0.00 0.00 0.00 44 1011.3
20260503225504 13 226 9.7 22.5 0.00 0.00 0.00 43 1011.3
20260503224504 13 229 11.3 25.7 0.00 0.00 0.00 44 1011.4
20260503223504 13 230 12.9 29.0 0.00 0.00 0.00 43 1011.5
20260503223005 13 227 12.9 30.6 0.00 0.00 0.00 42 1011.5
20260503222504 13 230 12.9 30.6 0.00 0.00 0.00 42 1011.6
20260503222005 13 228 11.3 29.0 0.00 0.00 0.00 43 1011.5
20260503221504 13 228 9.7 25.7 0.00 0.00 0.00 44 1011.5
20260503221005 13 228 11.3 25.7 0.00 0.00 0.00 43 1011.5
20260503220504 13 214 14.5 27.4 0.00 0.00 0.00 42 1011.5
20260503215504 13 227 14.5 32.2 0.00 0.00 0.00 42 1011.4
20260503214504 13 224 14.5 29.0 0.00 0.00 0.00 42 1011.6
20260503214004 14 225 12.9 29.0 0.00 0.00 0.00 42 1011.4
20260503213504 14 241 12.9 33.8 0.00 0.00 0.00 41 1011.5
20260503212504 14 242 12.9 29.0 0.00 0.00 0.00 41 1011.4
20260503212004 14 251 12.9 30.6 0.00 0.00 0.00 44 1011.5
20260503211504 14 253 16.1 40.2 0.00 0.00 0.00 44 1011.3
20260503211005 14 246 17.7 40.2 0.00 0.00 0.00 43 1011.4
20260503210005 14 248 14.5 30.6 0.00 0.00 0.00 41 1011.3
20260503205504 13 246 16.1 33.8 0.00 0.00 0.00 42 1011.4
20260503205004 14 247 17.7 33.8 0.00 0.00 0.00 40 1011.3
20260503204504 14 246 16.1 37.0 0.00 0.00 0.00 40 1011.5
20260503204005 14 251 12.9 37.0 0.00 0.00 0.00 46 1011.5
20260503203504 14 253 12.9 30.6 0.00 0.00 0.00 42 1011.5
20260503202504 14 219 16.1 35.4 0.00 0.00 0.00 43 1011.7
20260503202004 14 224 17.7 40.2 0.00 0.00 0.00 41 1011.8
20260503201504 14 240 17.7 40.2 0.00 0.00 0.00 41 1012.0
20260503201005 14 259 17.7 33.8 0.00 0.00 0.00 43 1011.9
20260503200005 15 247 17.7 32.2 0.00 0.00 0.00 41 1012.0
20260503195504 15 227 12.9 29.0 0.00 0.00 0.00 40 1012.1
20260503195004 15 217 12.9 32.2 0.00 0.00 0.00 39 1012.0
20260503194504 14 227 14.5 32.2 0.00 0.00 0.00 40 1012.3
20260503193005 15 247 16.1 35.4 0.00 0.00 0.00 39 1012.5
20260503192005 15 252 17.7 40.2 0.00 0.00 0.00 37 1012.6
20260503191504 14 258 17.7 45.1 0.00 0.00 0.00 41 1012.6
20260503191004 15 259 17.7 45.1 0.00 0.00 0.00 40 1012.6
20260503190504 15 251 19.3 33.8 0.00 0.00 0.00 39 1012.8
20260503190005 15 240 17.7 33.8 0.00 0.00 0.00 39 1012.7
20260503185504 14 236 16.1 33.8 0.00 0.00 0.00 44 1012.8
20260503184504 15 248 14.5 33.8 0.00 0.00 0.00 42 1012.8
20260503184003 15 255 17.7 33.8 0.00 0.00 0.00 40 1012.9
20260503183504 15 258 16.1 33.8 0.00 0.00 0.00 39 1013.1
20260503183004 15 253 14.5 32.2 0.00 0.00 0.00 44 1013.1
20260503182505 14 246 16.1 32.2 0.00 0.00 0.00 41 1013.0
20260503181505 15 251 17.7 38.6 0.00 0.00 0.00 41 1013.3
20260503181004 15 264 19.3 38.6 0.00 0.00 0.00 38 1013.3
20260503180504 15 249 19.3 37.0 0.00 0.00 0.00 41 1013.2
20260503180005 14 234 17.7 37.0 0.00 0.00 0.00 40 1013.2
20260503175004 15 241 17.7 38.6 0.00 0.00 0.00 43 1013.5
20260503174003 13 241 17.7 32.2 0.00 0.00 0.00 42 1013.5
20260503173504 13 247 16.1 32.2 0.00 0.00 0.00 42 1013.5
20260503173004 14 258 14.5 27.4 0.00 0.00 0.00 47 1013.6
20260503172504 14 269 17.7 35.4 0.00 0.00 0.00 45 1013.8
20260503172004 13 258 20.9 35.4 0.00 0.00 0.00 43 1013.8
20260503171504 14 248 16.1 33.8 0.00 0.00 0.00 46 1014.0
20260503171004 14 246 11.3 25.7 0.00 0.00 0.00 45 1013.9
20260503170504 13 244 14.5 32.2 0.00 0.00 0.00 44 1014.0
20260503151004 11 238 12.9 27.4 0.00 0.03 0.00 49 1015.0
20260503150505 11 236 12.9 30.6 0.00 0.03 0.00 49 1015.1
20260503131004 7 239 9.7 22.5 0.00 0.03 0.00 58 1015.5
20260503130503 7 240 8.0 17.7 0.00 0.03 0.00 60 1015.5
20260503110504 -1 233 1.6 4.8 0.00 0.10 0.00 96 1014.9
20260503090504 -1 233 3.2 4.8 0.00 0.13 0.00 95 1014.9
20260503081503 -1 225 1.6 4.8 0.00 0.13 0.00 95 1014.9
20260503081004 -1 224 3.2 8.0 0.00 0.13 0.00 95 1014.9
20260503080503 -1 223 3.2 8.0 0.00 0.13 0.00 95 1014.9
20260503072504 -1 214 3.2 8.0 0.00 0.13 0.00 95 1014.8
20260503072003 -1 214 3.2 8.0 0.00 0.13 0.00 95 1014.8
20260503071504 -1 215 3.2 6.4 0.00 0.13 0.00 94 1014.8
20260503071003 -1 214 1.6 6.4 0.00 0.13 0.00 94 1014.8
20260503070504 -1 215 1.6 4.8 0.00 0.13 0.00 94 1014.8
20260503055004 0 214 1.6 4.8 0.00 0.15 0.00 92 1015.2
20260503054503 0 214 1.6 4.8 0.00 0.18 0.00 92 1015.2
20260503054004 0 214 1.6 4.8 0.00 0.18 0.00 92 1015.2
20260503053504 0 214 1.6 4.8 0.00 0.18 0.00 92 1015.2
20260503053003 0 213 1.6 4.8 0.00 0.18 0.00 92 1015.3
20260503051503 0 239 1.6 6.4 0.00 0.18 0.00 91 1015.2
20260503051003 0 253 1.6 3.2 0.00 0.18 0.00 91 1015.3
20260503050504 0 253 1.6 3.2 0.00 0.18 0.00 91 1015.3
20260503050011 0 253 0.0 3.2 0.00 0.18 0.00 91 1015.4
20260503045511 0 253 0.0 1.6 0.00 0.18 0.00 90 1015.4
20260503045011 1 253 0.0 1.6 0.00 0.18 0.00 90 1015.4
20260503044511 1 253 0.0 3.2 0.00 0.18 0.00 90 1015.4
20260503044011 1 253 0.0 3.2 0.00 0.18 0.00 90 1015.4
20260503043511 1 253 0.0 1.6 0.00 0.18 0.00 90 1015.4
20260503043011 1 254 0.0 4.8 0.00 0.18 0.00 90 1015.3
20260503042511 1 255 1.6 4.8 0.00 0.18 0.00 90 1015.3
20260503042011 2 256 1.6 4.8 0.00 0.18 0.00 90 1015.4
20260503041511 2 256 1.6 4.8 0.00 0.18 0.00 89 1015.4
20260503041011 2 258 1.6 4.8 0.00 0.18 0.00 89 1015.4
20260503040511 2 258 1.6 3.2 0.00 0.18 0.00 89 1015.4
20260503040011 2 258 0.0 3.2 0.00 0.18 0.00 89 1015.5
20260503035510 2 259 0.0 3.2 0.00 0.18 0.18 89 1015.4
20260503035011 2 258 0.0 1.6 0.00 0.18 0.18 88 1015.4
20260503034511 2 258 0.0 1.6 0.00 0.18 0.18 88 1015.5
20260503034011 2 0 0.0 0.0 0.00 0.18 0.18 88 1015.5
20260503033511 2 259 0.0 3.2 0.00 0.18 0.18 87 1015.5
20260503033011 2 258 0.0 3.2 0.00 0.18 0.18 87 1015.5
20260503032510 2 259 0.0 3.2 0.00 0.18 0.18 87 1015.5
20260503032011 2 259 0.0 3.2 0.00 0.18 0.18 87 1015.5
20260503031511 2 258 0.0 3.2 0.00 0.18 0.18 87 1015.6
20260503030511 2 259 1.6 4.8 0.00 0.18 0.18 87 1015.6
20260503030011 2 259 1.6 3.2 0.00 0.18 0.18 86 1015.7
20260503025511 2 258 0.0 1.6 0.00 0.18 0.18 86 1015.7
20260503025011 2 259 1.6 3.2 0.00 0.18 0.18 85 1015.7
20260503024511 2 259 1.6 3.2 0.00 0.18 0.18 85 1015.8
20260503023512 2 259 0.0 3.2 0.00 0.18 0.18 86 1015.9
20260503023011 2 258 0.0 3.2 0.00 0.18 0.18 85 1016.0
20260503022010 2 258 1.6 3.2 0.00 0.18 0.18 81 1015.9
20260503021511 3 259 1.6 3.2 0.00 0.18 0.18 80 1015.9
20260503021010 3 259 1.6 4.8 0.00 0.18 0.18 80 1016.0
20260503020511 3 259 3.2 4.8 0.00 0.18 0.18 82 1015.9
20260503015511 3 259 1.6 3.2 0.00 0.18 0.18 80 1016.0
20260503015010 3 259 1.6 3.2 0.00 0.18 0.18 81 1015.9
20260503014511 3 259 1.6 3.2 0.00 0.18 0.18 81 1015.9
20260503014011 3 259 1.6 4.8 0.00 0.18 0.18 81 1015.9
20260503013511 3 259 1.6 4.8 0.00 0.18 0.18 80 1015.9
20260503013010 3 259 1.6 3.2 0.00 0.18 0.18 80 1015.8
20260503012511 3 259 1.6 4.8 0.00 0.18 0.18 79 1015.9
20260503012010 3 259 1.6 4.8 0.00 0.18 0.18 77 1015.9
20260503011511 3 259 1.6 4.8 0.00 0.18 0.18 77 1015.8
20260503011010 3 259 1.6 4.8 0.00 0.18 0.18 77 1015.9
20260503010511 3 259 3.2 4.8 0.00 0.18 0.18 77 1015.8